Date,TemperatureHighF,TemperatureAvgF,TemperatureLowF,DewpointHighF,DewpointAvgF,DewpointLowF,HumidityHigh,HumidityAvg,HumidityLow,PressureMaxIn,PressureMinIn,WindSpeedMaxMPH,WindSpeedAvgMPH,GustSpeedMaxMPH,PrecipitationSumIn
2013-6-25,81,81,81,-100,-100,-100,0,0,100,0.00,40.00,2,2,0,0.00
2013-7-2,63,63,63,-100,-100,-100,0,0,100,0.00,40.00,4,4,0,0.00
2013-7-8,74,74,74,-100,-100,-100,0,0,100,0.00,40.00,5,5,0,0.00
2013-7-17,84,84,84,-100,-100,-100,0,0,100,0.00,40.00,4,4,0,0.00
2013-7-18,89,89,89,-100,-100,-100,0,0,100,0.00,40.00,6,6,0,0.00
2013-7-19,90,90,90,-100,-100,-100,0,0,100,0.00,40.00,13,13,0,0.00
2013-7-23,75,75,75,-100,-100,-100,0,0,100,0.00,40.00,6,6,0,0.00
2013-7-24,66,66,66,-100,-100,-100,0,0,100,0.00,40.00,6,6,0,0.00
2013-8-1,72,72,72,-100,-100,-100,0,0,100,0.00,40.00,5,5,0,0.00
2013-8-12,69,68,66,-100,-100,-100,0,0,100,0.00,40.00,1,0,0,0.00
2013-8-13,65,60,55,-100,-100,-100,0,0,100,0.00,40.00,9,5,0,0.00
2013-8-14,65,57,47,-100,-100,-100,0,0,100,0.00,40.00,8,3,0,0.00
2013-8-15,70,58,47,-100,-100,-100,0,0,100,0.00,40.00,7,2,0,0.00
2013-8-16,77,64,53,-100,-100,-100,0,0,100,0.00,40.00,6,2,0,0.00
2013-8-17,59,56,54,-100,-100,-100,0,0,100,0.00,40.00,0,0,0,0.00
2013-8-19,79,71,62,-100,-100,-100,0,0,100,0.00,40.00,4,1,0,0.00
2013-8-20,78,71,63,-100,-100,-100,0,0,100,0.00,40.00,2,1,0,0.00
2013-8-21,86,79,66,-100,-100,-100,0,0,100,0.00,40.00,7,3,0,0.00
2013-8-22,77,71,66,-100,-100,-100,0,0,100,0.00,40.00,11,4,0,0.00
2013-8-23,76,68,63,-100,-100,-100,0,0,100,0.00,40.00,7,4,0,0.00
2013-8-24,81,64,54,-100,-100,-100,0,0,100,0.00,40.00,3,1,0,0.00
2013-8-25,85,75,60,-100,-100,-100,0,0,100,0.00,40.00,7,3,0,0.00
2013-8-26,85,76,70,-100,-100,-100,0,0,100,0.00,40.00,8,4,0,0.00
2013-8-27,80,78,75,-100,-100,-100,0,0,100,0.00,40.00,7,5,0,0.00
2013-8-28,78,75,71,-100,-100,-100,0,0,100,0.00,40.00,7,5,0,0.00
2013-8-29,83,73,64,-100,-100,-100,0,0,100,0.00,40.00,6,1,0,0.00
2013-8-30,90,74,66,-100,-100,-100,0,0,100,0.00,40.00,7,2,0,0.00
2013-8-31,73,69,67,-100,-100,-100,0,0,100,0.00,40.00,5,3,0,0.00
2013-9-1,78,75,69,-100,-100,-100,0,0,100,0.00,40.00,6,3,0,0.00
2013-9-2,72,67,61,-100,-100,-100,0,0,100,0.00,40.00,10,7,0,0.00
2013-9-3,68,63,56,-100,-100,-100,0,0,100,0.00,40.00,6,3,0,0.00
2013-9-4,75,66,54,-100,-100,-100,0,0,100,0.00,40.00,8,4,0,0.00
2013-9-5,72,65,61,-100,-100,-100,0,0,100,0.00,40.00,7,4,0,0.00
2013-9-6,78,65,51,-100,-100,-100,0,0,100,0.00,40.00,4,1,0,0.00
2013-9-7,80,67,65,-100,-100,-100,0,0,100,0.00,40.00,6,2,0,0.00
2013-9-8,78,73,65,-100,-100,-100,0,0,100,0.00,40.00,5,3,0,0.00
2013-9-9,90,71,63,-100,-100,-100,0,0,100,0.00,40.00,3,2,0,0.00
2013-9-10,91,84,76,-100,-100,-100,0,0,100,0.00,40.00,10,6,0,0.00
2013-9-11,87,79,70,-100,-100,-100,0,0,100,0.00,40.00,8,5,0,0.00
2013-9-12,74,70,67,-100,-100,-100,0,0,100,0.00,40.00,4,2,0,0.00
2013-9-26,-200,0,200,-100,-100,-100,0,0,100,0.00,40.00,9,6,0,0.00
2013-10-21,47,47,47,-100,-100,-100,0,0,100,0.00,40.00,9,9,0,0.00